This is the latest recevied weather packets stored in our database for station/object ED2YAA-10. If no packets are shown the sender has not sent any weather packets the latest 10 day(s).
| Time | Temp. | Humidity | Pressure | Rain* | Wind** | Luminosity | Snow |
|---|---|---|---|---|---|---|---|
| 1777209130 | 27.22° C | 35% | 933 hPa | - | - | - | - |
| 1777208221 | 32.78° C | 30% | 933.1 hPa | - | - | - | - |
| 1777207322 | 31.67° C | 31% | 933.1 hPa | - | - | - | - |
| 1777206421 | 31.11° C | 31% | 933.2 hPa | - | - | - | - |
| 1777205521 | 30° C | 33% | 933.2 hPa | - | - | - | - |
| 1777204621 | 29.44° C | 34% | 933.3 hPa | - | - | - | - |
| 1777203721 | 28.89° C | 35% | 933.4 hPa | - | - | - | - |
| 1777202821 | 28.33° C | 36% | 933.6 hPa | - | - | - | - |
| 1777201921 | 27.22° C | 38% | 933.4 hPa | - | - | - | - |
| 1777201021 | 26.67° C | 38% | 933.7 hPa | - | - | - | - |
| 1777200117 | 26.11° C | 39% | 933.6 hPa | - | - | - | - |
| 1777199216 | 25.56° C | 40% | 933.6 hPa | - | - | - | - |
| 1777198317 | 24.44° C | 40% | 933.6 hPa | - | - | - | - |
| 1777197416 | 23.89° C | 41% | 933.7 hPa | - | - | - | - |
| 1777196516 | 23.33° C | 42% | 933.7 hPa | - | - | - | - |
| 1777195616 | 22.78° C | 42% | 933.6 hPa | - | - | - | - |
| 1777194716 | 22.78° C | 42% | 933.6 hPa | - | - | - | - |
| 1777193816 | 22.22° C | 42% | 933.6 hPa | - | - | - | - |
| 1777192916 | 21.67° C | 42% | 933.5 hPa | - | - | - | - |
| 1777192016 | 21.67° C | 42% | 933.5 hPa | - | - | - | - |
| 1777191117 | 21.11° C | 43% | 933.5 hPa | - | - | - | - |
| 1777190216 | 21.11° C | 42% | 933.5 hPa | - | - | - | - |
| 1777189323 | 21.11° C | 42% | 933.4 hPa | - | - | - | - |
| 1777188415 | 21.11° C | 42% | 933.2 hPa | - | - | - | - |
| 1777187518 | 20.56° C | 42% | 933.3 hPa | - | - | - | - |
* Rain since midnight (hover to see other rain measurements)
** Current wind speed in m/s (hover to see current wind gust speed)